Chicago, Illinois, United States (60601)
Lat: 41.85N, Lon: 87.65W
Wx Zone: ILZ014
Local Info
Past Weather Observations for Wednesday, November 19, 2014

NOTE: This archive is for the closest National Weather Service station to Chicago. Information may differ from the station used for current weather conditions.

Click here for Long-term Archive

Time Weather Temperature Dewpoint Humidity Pressure Winds Precip Visibility
23:53
Partly Cloudy
25°F / -4°C 12°F / -11°C 59% 30.04 in
(1017 mb)
W 15 mph
(W 24 kph)
- 10SM
22:53
Mostly Cloudy
Light Snow
25°F / -4°C 10°F / -12°C 54% 30.01 in
(1016 mb)
W 12.7 mph
(W 20 kph)
0.00 in
(0.00 mm)
10SM
21:53
Mostly Cloudy
25°F / -4°C 10°F / -12°C 54% 30.01 in
(1016 mb)
W 13.8 mph
(W 22 kph)
- 10SM
20:53
Overcast
27°F / -3°C 9°F / -13°C 46% 30.01 in
(1016 mb)
W 13.8 mph
(W 22 kph)
- 10SM
19:53
Mostly Cloudy
27°F / -3°C 9°F / -13°C 46% 30.01 in
(1016 mb)
W 15 mph
(W 24 kph)
0.00 in
(0.00 mm)
10SM
18:53
Overcast
Light Snow
27°F / -3°C 10°F / -12°C 50% 29.98 in
(1015 mb)
WNW 19.6 mph
(WNW 32 kph)
0.00 in
(0.00 mm)
10SM
17:53
Overcast
Light Snow
27°F / -3°C 12°F / -11°C 54% 29.95 in
(1014 mb)
W 17.3 mph
(W 28 kph)
0.00 in
(0.00 mm)
9SM
16:53
Overcast
Light Snow
28°F / -2°C 12°F / -11°C 51% 29.92 in
(1013 mb)
W 18.4 mph
(W 30 kph)
0.00 in
(0.00 mm)
8SM
15:53
Overcast
28°F / -2°C 14°F / -10°C 55% 29.89 in
(1012 mb)
W 18.4 mph
(W 30 kph)
0.00 in
(0.00 mm)
10SM
14:53
Overcast
Light Snow
30°F / -1°C 16°F / -9°C 55% 29.83 in
(1010 mb)
W 17.3 mph
(W 28 kph)
0.00 in
(0.00 mm)
9SM
13:53
Overcast
Light Snow
30°F / -1°C 18°F / -8°C 59% 29.8 in
(1009 mb)
W 18.4 mph
(W 30 kph)
0.00 in
(0.00 mm)
10SM
12:53
Overcast
Light Snow
32°F / 0°C 18°F / -8°C 55% 29.8 in
(1009 mb)
W 20.7 mph
(W 33 kph)
0.00 in
(0.00 mm)
10SM
11:53
Mostly Cloudy
32°F / 0°C 18°F / -8°C 55% 29.77 in
(1008 mb)
SSW 19.6 mph
(SSW 32 kph)
- 10SM
10:53
Mostly Cloudy
34°F / 1°C 18°F / -8°C 51% 29.77 in
(1008 mb)
SSW 19.6 mph
(SSW 32 kph)
- 10SM
09:53
Partly Cloudy
30°F / -1°C 18°F / -8°C 59% 29.77 in
(1008 mb)
SSW 13.8 mph
(SSW 22 kph)
- 10SM
08:53
Mostly Cloudy
27°F / -3°C 18°F / -8°C 69% 29.77 in
(1008 mb)
SW 12.7 mph
(SW 20 kph)
- 10SM
07:53
Mostly Cloudy
25°F / -4°C 16°F / -9°C 69% 29.8 in
(1009 mb)
S 11.5 mph
(S 19 kph)
- 10SM
06:53
Overcast
25°F / -4°C 12°F / -11°C 59% 29.8 in
(1009 mb)
S 15 mph
(S 24 kph)
0.00 in
(0.00 mm)
10SM
05:53
Overcast
Light Snow
23°F / -5°C 10°F / -12°C 58% 29.83 in
(1010 mb)
S 12.7 mph
(S 20 kph)
0.00 in
(0.00 mm)
9SM
04:53
Overcast
21°F / -6°C 10°F / -12°C 63% 29.86 in
(1011 mb)
SSE 10.4 mph
(SSE 17 kph)
- 10SM
03:53
Overcast
19°F / -7°C 9°F / -13°C 63% 29.92 in
(1013 mb)
S 12.7 mph
(S 20 kph)
- 10SM
02:53
Mostly Cloudy
19°F / -7°C 9°F / -13°C 63% 29.95 in
(1014 mb)
S 11.5 mph
(S 19 kph)
- 10SM
01:53
Overcast
19°F / -7°C 7°F / -14°C 58% 30.01 in
(1016 mb)
S 10.4 mph
(S 17 kph)
- 10SM
00:53
Overcast
19°F / -7°C 7°F / -14°C 58% 30.04 in
(1017 mb)
S 10.4 mph
(S 17 kph)
- 10SM
Time Weather Temperature Dewpoint Humidity Pressure Winds Precip Visibility


Weather for websites

WeatherForYou.com, LLC is not responsible for any damages or problems caused by this service. Current weather conditions are obtained from the closest station including government and personal stations which may have varying degrees of accuracy. Weather forecasts are derived from the NOAA NDFD. Like all things, this site belongs to Jesus Christ... He just trusts me to maintain it. If you have any questions or comments email webmaster@weatherforyou.com

Copyright © 2014, WeatherForYou.com LLC. All rights reserved.